Flag for South Africa Weather past 2 weeks in Cape Town, South Africa

Now
50 °F

Passing clouds.


Feels Like: 48 °F
Forecast: 55 / 61 °F
Wind: 5 mph from Northwest

Location: Cape Town International Airport

Current Time: Jul 25, 2014 at 8:49:37 PM

Latest Report: Jul 25, 2014 at 8:00 PM


Visibility: N/A

Pressure: 30.07 "Hg

Humidity: 76%

Dew point: 43 °F

Location of Cape TownLocation

Historic Weather in Cape Town — Graph

°F

Cape Town temperature yesterday

Maximum temperature yesterday: 63 °F (at 1:00 PM)
Minimum temperature yesterday: 50 °F (at 12:00 AM)
Average temperature yesterday: 55 °F

Past Weeks' High & Low Weather Summary

 TemperatureHumidityPressure
High73 °F (Jul 15, 1:00 PM)100% (Jul 23, 6:00 AM)30.42 "Hg (Jul 23, 6:00 AM)
Low37 °F (Jul 21, 4:00 AM)22% (Jul 15, 3:00 PM)29.74 "Hg (Jul 17, 8:00 AM)
Average55 °F77%30.11 "Hg
* Reported Jul 10 8:00 PM — Jul 25 7:00 PM, Cape Town, Weather by CustomWeather, © 2014

Note: Actual official high and low records may vary slightly from our data, if they occured in-between our weather recording intervals... More about our weather records

Advertising

Cape Town weather history for previous 24 hours

 ConditionsComfort  
Time TempWeatherWind HumidityBarometerVisibility
7:00 PM
Jul 25
52 °FPassing clouds.8 mph67%30.04 "HgN/A
6:00 PM52 °FPassing clouds.12 mph77%30.01 "HgN/A
5:00 PM54 °FPassing clouds.10 mph72%29.98 "HgN/A
3:00 PM57 °FScattered clouds.23 mph59%29.95 "HgN/A
2:00 PM54 °FBroken clouds.12 mph67%29.95 "HgN/A
1:00 PM55 °FBroken clouds.10 mph67%29.95 "HgN/A
12:00 PM55 °FSprinkles. Broken clouds.18 mph67%29.95 "HgN/A
11:00 AM52 °FLight rain. Partly sunny.21 mph72%29.95 "HgN/A
10:00 AM54 °FPartly sunny.20 mph72%29.92 "HgN/A
9:00 AM54 °FPartly sunny.16 mph77%29.89 "HgN/A
8:00 AM54 °FPartly sunny.10 mph88%29.86 "HgN/A
7:00 AM54 °FPartly sunny.12 mph82%29.86 "HgN/A
6:00 AM55 °FLight rain. Passing clouds.14 mph77%29.83 "HgN/A
5:00 AM54 °FPassing clouds.12 mph82%29.86 "HgN/A
4:00 AM55 °FLight rain. Partly cloudy.15 mph82%29.83 "Hg5 mi
3:00 AM54 °FPartly cloudy.16 mph88%29.86 "HgN/A
2:00 AM55 °FPartly cloudy.15 mph82%29.86 "HgN/A
12:20 AMN/APartly cloudy.N/AN/AN/AN/A
11:00 PM
Jul 24
57 °FPassing clouds.16 mph77%29.89 "HgN/A
10:00 PM55 °FPassing clouds.14 mph82%29.89 "HgN/A
9:00 PM55 °FLight rain. Passing clouds.20 mph88%29.86 "Hg5 mi
8:00 PM55 °FLight rain. Mostly cloudy.24 mph82%29.86 "Hg4 mi
Weather by CustomWeather, © 2014

See weather overviewHow to use our weather pages